#
# The Tor Project
#
# URL: https://metrics.torproject.org/bandwidth.csv?start=2014-02-15&end=2020-05-15
#
date,advbw,bwhist
2014-02-15,61.739907184,32.784117896
2014-02-16,62.816019144,33.151241684
2014-02-17,63.281553904,32.97392518
2014-02-18,63.586070264,32.442855004
2014-02-19,63.854387504,32.428788432
2014-02-20,63.918255288,32.69839582
2014-02-21,64.239938776,32.766924792
2014-02-22,64.3532504,33.427029292
2014-02-23,64.225933336,33.204990228
2014-02-24,63.595456848,33.503626052
2014-02-25,64.013389208,33.628544104
2014-02-26,64.261182304,33.411024988
2014-02-27,63.5704572,33.219490544
2014-02-28,63.822191864,33.324492852
2014-03-01,65.609327256,34.835314328
2014-03-02,66.604069656,34.051438616
2014-03-03,66.527218224,34.493668312
2014-03-04,66.81114772,34.208176084
2014-03-05,66.75041064,34.32278036
2014-03-06,66.732510304,33.74077854
2014-03-07,66.479659136,33.982332704
2014-03-08,67.110751024,34.059636348
2014-03-09,66.88553156,33.36007624
2014-03-10,65.179199968,33.306971604
2014-03-11,64.95640064,33.78389828
2014-03-12,65.030050136,33.66111566
2014-03-13,64.508393224,33.731525832
2014-03-14,64.01989832,33.650613828
2014-03-15,64.28179604,34.829251352
2014-03-16,65.38759868,33.91384088
2014-03-17,64.79487232,34.165408296
2014-03-18,64.79698188,33.544604848
2014-03-19,64.997354328,33.575268056
2014-03-20,65.580477744,34.033353108
2014-03-21,65.611489008,34.852464688
2014-03-22,66.626456384,36.19325356
2014-03-23,66.851949968,35.623464764
2014-03-24,67.259158368,35.94822988
2014-03-25,67.956532352,35.771175284
2014-03-26,67.8355356,35.585766996
2014-03-27,67.55037464,35.843012612
2014-03-28,67.653033832,36.507369664
2014-03-29,68.800045104,37.426089012
2014-03-30,69.16462864,36.995303432
2014-03-31,69.28242036,36.29179304
2014-04-01,70.178437368,35.342167516
2014-04-02,70.073369696,35.424049252
2014-04-03,69.260779232,35.7452528
2014-04-04,69.895053624,36.033626324
2014-04-05,70.344374368,36.123307332
2014-04-06,69.929477904,35.146685532
2014-04-07,69.199557656,35.328017644
2014-04-08,67.195931792,34.58048362
2014-04-09,61.978508296,32.706015872
2014-04-10,59.50168964,31.814602728
2014-04-11,60.433740384,32.636742216
2014-04-12,61.570231608,33.650116148
2014-04-13,63.624989208,33.737543792
2014-04-14,64.062961208,34.082678368
2014-04-15,64.539389856,33.551734672
2014-04-16,64.306986624,33.083894584
2014-04-17,63.036923776,33.185780336
2014-04-18,58.216192448,32.550870644
2014-04-19,59.01884476,33.093753436
2014-04-20,59.944120656,32.700025268
2014-04-21,61.237543384,33.949572308
2014-04-22,62.883295456,34.691949812
2014-04-23,64.50331088,35.127393788
2014-04-24,65.765145128,35.033178696
2014-04-25,65.992245552,36.06335662
2014-04-26,66.077134552,36.08784032
2014-04-27,65.674345088,36.080053044
2014-04-28,66.64556652,36.297860416
2014-04-29,66.205880872,36.436898612
2014-04-30,66.716891936,36.81099042
2014-05-01,68.141306576,36.699384896
2014-05-02,68.970718016,37.977127452
2014-05-03,70.274606104,38.036489408
2014-05-04,71.708112296,37.51821414
2014-05-05,71.645027136,38.227497748
2014-05-06,72.19886732,38.184365352
2014-05-07,71.843536088,37.49647882
2014-05-08,71.589756488,37.97803888
2014-05-09,72.492774024,38.230384476
2014-05-10,73.955583096,39.54077972
2014-05-11,74.330493072,39.26814888
2014-05-12,74.648146752,38.883006852
2014-05-13,75.159601496,38.747824944
2014-05-14,75.154781592,37.77782408
2014-05-15,74.473646312,38.262127212
2014-05-16,74.861944808,38.07282878
2014-05-17,74.856082768,38.389160436
2014-05-18,74.816141872,38.279215968
2014-05-19,74.720200424,38.657588792
2014-05-20,75.334498,38.1485522
2014-05-21,73.934569056,37.829474408
2014-05-22,73.764536328,38.380156096
2014-05-23,74.49107208,38.960138836
2014-05-24,75.01997964,39.143199912
2014-05-25,75.251078352,37.824793812
2014-05-26,74.126627384,38.680642608
2014-05-27,74.744722776,39.14145224
2014-05-28,75.30904736,38.576427392
2014-05-29,75.237734952,39.013330428
2014-05-30,74.615166232,38.741559832
2014-05-31,74.96938084,38.230814248
2014-06-01,76.305683568,38.481775156
2014-06-02,77.493497544,39.717897348
2014-06-03,78.367706024,39.462404784
2014-06-04,78.112333168,39.33734084
2014-06-05,78.921455816,39.589517028
2014-06-06,80.257676024,39.25699286
2014-06-07,80.50176588,38.950480472
2014-06-08,81.462895936,38.284251848
2014-06-09,81.5576438,39.71109504
2014-06-10,81.832024392,38.900463132
2014-06-11,81.500180312,39.561993252
2014-06-12,82.979976832,38.452088464
2014-06-13,83.037650272,38.579131184
2014-06-14,82.909630744,39.261312832
2014-06-15,83.260186704,39.111536968
2014-06-16,84.155166,39.825638068
2014-06-17,84.572069104,40.037918452
2014-06-18,84.55034592,39.754769424
2014-06-19,83.827291312,40.24030032
2014-06-20,85.447738664,40.309056528
2014-06-21,86.268606544,40.756391232
2014-06-22,85.445698296,39.944094428
2014-06-23,84.979778512,40.637871704
2014-06-24,85.642950584,40.559814572
2014-06-25,84.673616608,40.61318862
2014-06-26,85.901668848,39.731843108
2014-06-27,86.286189368,40.955391224
2014-06-28,86.843323128,40.044613448
2014-06-29,87.189886168,38.569378588
2014-06-30,84.885331528,38.789661548
2014-07-01,85.085330976,38.352788368
2014-07-02,84.490191904,39.42246752
2014-07-03,86.249904104,39.327319796
2014-07-04,86.848211336,38.840172916
2014-07-05,86.950062816,38.574763812
2014-07-06,85.54266972,39.766418824
2014-07-07,83.803519056,40.700846204
2014-07-08,83.254006144,40.168037996
2014-07-09,83.540301656,39.742097668
2014-07-10,83.567789032,39.947720844
2014-07-11,83.574676552,40.114003672
2014-07-12,84.500083496,40.169625784
2014-07-13,84.728615992,39.592380548
2014-07-14,84.70946072,41.068656656
2014-07-15,85.33297164,40.416101436
2014-07-16,85.547140976,40.805691504
2014-07-17,86.44663908,40.409080492
2014-07-18,86.588262656,39.418850708
2014-07-19,84.90827,39.46628942
2014-07-20,85.649356296,40.333049712
2014-07-21,85.901377568,41.412944956
2014-07-22,86.220382672,41.6940253
2014-07-23,87.012961296,41.443887636
2014-07-24,86.895759704,41.0162675
2014-07-25,87.169037808,40.999879748
2014-07-26,87.14958684,40.587203236
2014-07-27,87.254515528,39.941059504
2014-07-28,87.413513344,41.553861936
2014-07-29,86.812710616,40.602817608
2014-07-30,87.590973232,40.937588524
2014-07-31,88.546446392,41.816203668
2014-08-01,89.52834168,41.317969984
2014-08-02,90.786684208,41.671541152
2014-08-03,90.32408932,41.013290028
2014-08-04,90.133311256,41.487682104
2014-08-05,89.75518684,41.9418889
2014-08-06,89.548371352,41.510059172
2014-08-07,89.912485544,41.9769319
2014-08-08,90.36579692,42.045988548
2014-08-09,90.816133824,42.48390436
2014-08-10,90.279813528,42.72791076
2014-08-11,90.368057896,42.375941784
2014-08-12,90.089916056,42.429748244
2014-08-13,89.802056552,43.524360988
2014-08-14,89.88111892,43.019787504
2014-08-15,89.415841192,43.046202724
2014-08-16,89.161785224,43.24288034
2014-08-17,89.282305296,42.808400316
2014-08-18,89.402230344,43.840595476
2014-08-19,90.275051288,42.896153756
2014-08-20,90.208897072,42.122207484
2014-08-21,89.774238088,42.336221124
2014-08-22,90.639093848,43.48709496
2014-08-23,92.49038888,44.692477416
2014-08-24,93.757427408,45.168873644
2014-08-25,93.932667296,44.320212796
2014-08-26,93.005944584,44.611085876
2014-08-27,93.2184652,44.549060692
2014-08-28,94.269532584,44.615656948
2014-08-29,93.19115928,44.564708284
2014-08-30,93.546783704,44.100502316
2014-08-31,94.14578692,43.74913132
2014-09-01,95.037463592,45.254028852
2014-09-02,96.62880852,45.735955324
2014-09-03,96.472826,44.881056516
2014-09-04,96.117798944,45.65347996
2014-09-05,97.364322112,46.055600716
2014-09-06,97.268686216,45.452629928
2014-09-07,96.804067688,44.197107488
2014-09-08,97.281412592,44.484716612
2014-09-09,96.646112888,43.911240476
2014-09-10,95.799334056,44.180500548
2014-09-11,96.008762968,44.2103625
2014-09-12,96.6507518,44.89937184
2014-09-13,96.79267912,44.86212282
2014-09-14,97.052747728,44.94584602
2014-09-15,97.372131456,44.75396618
2014-09-16,96.446759624,44.113922636
2014-09-17,96.255256776,44.655132492
2014-09-18,96.945874328,43.945405664
2014-09-19,96.330728576,44.636368316
2014-09-20,99.3123684,45.7554679
2014-09-21,98.619950992,44.448820416
2014-09-22,97.20353936,45.360602744
2014-09-23,96.948639048,45.39871574
2014-09-24,96.92126112,44.881145952
2014-09-25,97.049826264,44.632164096
2014-09-26,97.202896128,44.824083524
2014-09-27,97.560308472,45.222006864
2014-09-28,97.962033552,45.115473028
2014-09-29,97.60460536,45.200207748
2014-09-30,97.992454936,44.792497388
2014-10-01,99.370111984,44.825932324
2014-10-02,99.865617392,44.608697472
2014-10-03,100.06602144,44.488038312
2014-10-04,99.807339928,44.000070536
2014-10-05,99.64977076,44.153409724
2014-10-06,99.308652096,45.539567836
2014-10-07,99.934472432,45.924299176
2014-10-08,100.45771868,46.11602184
2014-10-09,101.006421016,45.892194152
2014-10-10,101.346435904,47.042454448
2014-10-11,101.426382144,47.883323648
2014-10-12,102.266905136,46.779304832
2014-10-13,101.561533376,46.810958648
2014-10-14,101.142016912,46.48977074
2014-10-15,100.71857624,45.60669206
2014-10-16,101.947806928,46.740464056
2014-10-17,103.410251472,47.218210728
2014-10-18,103.410486104,47.325603524
2014-10-19,103.895341512,46.755115976
2014-10-20,103.668408496,47.024938032
2014-10-21,103.648055504,47.081309716
2014-10-22,103.526357072,46.88007598
2014-10-23,103.80081592,46.450076076
2014-10-24,104.71852296,47.57498382
2014-10-25,105.398937488,47.763049252
2014-10-26,106.320030584,47.235245428
2014-10-27,105.80522908,48.146742212
2014-10-28,105.745169528,47.6492815
2014-10-29,105.203411504,47.315346324
2014-10-30,104.953559008,47.261991188
2014-10-31,105.320561768,48.343418192
2014-11-01,106.368437416,49.20550012
2014-11-02,107.223975864,48.36315306
2014-11-03,106.460506392,48.056688532
2014-11-04,107.083589056,47.9961351
2014-11-05,106.241078064,47.935234628
2014-11-06,105.637257752,47.680566024
2014-11-07,105.727978368,47.828801456
2014-11-08,105.78334944,49.101119932
2014-11-09,105.495231616,47.349533144
2014-11-10,103.95706288,47.380891252
2014-11-11,103.236772264,47.265094996
2014-11-12,102.595774096,47.221189456
2014-11-13,103.845072496,46.725689112
2014-11-14,104.275896632,47.16432614
2014-11-15,104.93154912,48.366200548
2014-11-16,105.369556064,47.925128136
2014-11-17,104.634131976,47.566786284
2014-11-18,104.213310432,47.031482336
2014-11-19,103.24639788,47.077050892
2014-11-20,104.04629092,46.590475936
2014-11-21,104.706784072,47.108802564
2014-11-22,105.609278808,47.776331996
2014-11-23,105.635322728,47.080439824
2014-11-24,105.233702768,47.405225572
2014-11-25,105.973145152,46.981565916
2014-11-26,106.225006112,46.569495168
2014-11-27,104.87952776,46.090124732
2014-11-28,104.208661784,47.333933976
2014-11-29,105.324953,48.168799204
2014-11-30,106.007649176,47.052291044
2014-12-01,106.293019888,47.660930872
2014-12-02,106.976258248,47.341783136
2014-12-03,106.941318416,47.675534024
2014-12-04,108.342715912,47.370089876
2014-12-05,109.913706768,47.35789698
2014-12-06,110.724022688,47.648984376
2014-12-07,111.071975056,47.14599798
2014-12-08,111.07952348,46.816189848
2014-12-09,109.809644784,46.843529912
2014-12-10,108.645780552,46.4870615
2014-12-11,108.162603736,46.741231568
2014-12-12,107.981370496,46.791807172
2014-12-13,108.171996584,48.016647348
2014-12-14,106.913535136,47.15690774
2014-12-15,107.966541256,47.30826924
2014-12-16,109.867914528,48.409575512
2014-12-17,110.486389664,48.690683312
2014-12-18,109.476993416,49.473686168
2014-12-19,110.438151256,49.527955772
2014-12-20,110.307240424,49.344887088
2014-12-21,109.112563712,49.068605888
2014-12-22,108.442762784,50.430611784
2014-12-23,110.42227616,50.412723328
2014-12-24,110.046872368,48.815905132
2014-12-25,108.927684776,47.825475976
2014-12-26,109.218664576,49.636847876
2014-12-27,108.001723616,49.031579836
2014-12-28,108.670864488,50.085754056
2014-12-29,109.52452388,51.703962512
2014-12-30,110.656868664,51.221958104
2014-12-31,108.72473316,49.471341496
2015-01-01,109.567695384,49.092759916
2015-01-02,110.587403936,51.27685792
2015-01-03,110.087110848,52.586347976
2015-01-04,111.74913496,52.01920022
2015-01-05,111.690906792,52.327710136
2015-01-06,112.167541056,52.399857776
2015-01-07,112.31902872,52.438114724
2015-01-08,111.237325072,52.3336149
2015-01-09,110.608390168,52.311168328
2015-01-10,110.625413696,52.697392536
2015-01-11,110.64592812,52.55931912
2015-01-12,110.209639864,52.32473796
2015-01-13,109.700606096,51.3671507
2015-01-14,109.53686384,52.0059381
2015-01-15,109.414595752,52.45037664
2015-01-16,110.855103736,53.174579768
2015-01-17,111.715927928,53.897567972
2015-01-18,111.371084328,53.064764256
2015-01-19,111.044262384,52.526494148
2015-01-20,113.447509616,52.023868812
2015-01-21,113.666792944,52.75746514
2015-01-22,113.731934576,53.733358624
2015-01-23,115.914454528,55.64843616
2015-01-24,116.976282064,57.134454704
2015-01-25,116.809327144,56.702227624
2015-01-26,117.044251432,56.56560408
2015-01-27,117.219671752,55.414882636
2015-01-28,116.019284024,54.2927238
2015-01-29,116.489956632,53.435437584
2015-01-30,115.678259904,54.806230988
2015-01-31,116.992013784,56.497409904
2015-02-01,118.73145884,56.485508912
2015-02-02,118.869610544,56.406184624
2015-02-03,120.77161632,55.82433334
2015-02-04,121.310163112,56.361080516
2015-02-05,120.142807112,56.232673504
2015-02-06,119.807661032,52.580464148
2015-02-07,119.986149976,55.163309128
2015-02-08,120.22445196,55.345784328
2015-02-09,119.870014616,56.860805328
2015-02-10,121.813685064,57.265040592
2015-02-11,123.005973928,56.297339192
2015-02-12,122.296265152,56.466077408
2015-02-13,123.239624304,57.760198048
2015-02-14,123.203773784,59.146762136
2015-02-15,124.481255872,58.885616068
2015-02-16,125.682510576,59.804187728
2015-02-17,124.469166696,59.089094144
2015-02-18,123.688970744,58.194762832
2015-02-19,123.788345056,57.637019608
2015-02-20,124.642295712,58.600358768
2015-02-21,125.660277392,59.70663472
2015-02-22,127.089163096,59.654499464
2015-02-23,127.236996832,60.221538056
2015-02-24,127.278934392,60.636054064
2015-02-25,128.984805616,61.008036408
2015-02-26,130.77375032,63.172043384
2015-02-27,132.09628892,64.49100692
2015-02-28,133.402237336,64.5906442
2015-03-01,132.618417784,63.344325828
2015-03-02,139.374696232,63.8484763
2015-03-03,137.473359984,57.845742668
2015-03-04,128.847256456,61.177716256
2015-03-05,133.199065824,60.599444944
2015-03-06,134.123057896,61.859596652
2015-03-07,135.298961264,63.870091692
2015-03-08,135.485573576,63.211164284
2015-03-09,138.211334272,63.867361144
2015-03-10,136.010022784,60.053334396
2015-03-11,130.099117048,62.1320748
2015-03-12,131.24650708,63.635927824
2015-03-13,135.299045544,65.272998684
2015-03-14,136.443034576,64.746223384
2015-03-15,135.594956456,64.869712436
2015-03-16,135.868708304,66.403776024
2015-03-17,136.716523616,66.626033772
2015-03-18,137.330623328,65.986672004
2015-03-19,134.910735328,67.308826844
2015-03-20,132.50651692,64.506616764
2015-03-21,130.371430976,64.22413754
2015-03-22,131.039688144,62.507955856
2015-03-23,129.922876784,62.946073828
2015-03-24,127.095827416,62.234468284
2015-03-25,126.312048,61.278343164
2015-03-26,124.829830032,59.298111368
2015-03-27,122.935186376,59.461178844
2015-03-28,121.75929852,57.616530564
2015-03-29,121.328266648,58.456490856
2015-03-30,121.247521712,58.178049632
2015-03-31,119.92552056,57.336951104
2015-04-01,122.450074512,58.732093776
2015-04-02,123.652920184,58.933056892
2015-04-03,124.091955272,59.250163008
2015-04-04,124.215479728,57.843777668
2015-04-05,122.115733744,50.959500712
2015-04-06,118.487067168,55.895639956
2015-04-07,121.343173472,57.46856442
2015-04-08,122.264664416,58.22162794
2015-04-09,123.206482176,56.91612692
2015-04-10,122.77901672,57.555092988
2015-04-11,123.803941824,58.023566632
2015-04-12,123.507411936,57.913811888
2015-04-13,123.185695584,58.394218268
2015-04-14,124.122168936,58.604987012
2015-04-15,123.978100888,57.888505588
2015-04-16,122.468874456,57.94183738
2015-04-17,122.079336136,58.653228644
2015-04-18,121.658187336,59.71058486
2015-04-19,122.900291976,59.526461912
2015-04-20,123.468652008,59.597110592
2015-04-21,124.75227092,59.7861427
2015-04-22,124.886832872,61.671547768
2015-04-23,124.907025984,60.910171612
2015-04-24,123.97071292,61.652405868
2015-04-25,126.404958368,69.50668344
2015-04-26,130.151635184,67.710939912
2015-04-27,130.058290304,66.53926594
2015-04-28,129.951027608,66.648166096
2015-04-29,130.88825468,65.944022696
2015-04-30,129.909066832,58.644402772
2015-05-01,126.021973632,56.071746116
2015-05-02,123.31711492,55.808479068
2015-05-03,122.73590148,55.328454676
2015-05-04,121.869651232,55.85703438
2015-05-05,120.400410312,54.779258028
2015-05-06,120.926491296,54.519984236
2015-05-07,119.883193264,53.638452084
2015-05-08,118.32170392,54.315767756
2015-05-09,118.77990336,54.51840714
2015-05-10,118.235585552,53.384846068
2015-05-11,116.94411124,54.36449148
2015-05-12,117.170662888,53.7531459
2015-05-13,117.571761184,55.35736136
2015-05-14,117.863515792,56.343984444
2015-05-15,117.417710232,55.448994756
2015-05-16,117.206810864,55.112031608
2015-05-17,115.562775056,53.765272928
2015-05-18,114.407299848,54.830784296
2015-05-19,115.358311648,55.028047512
2015-05-20,115.669268688,54.574871104
2015-05-21,114.508914384,55.252147864
2015-05-22,114.960039976,54.988473872
2015-05-23,116.121352536,55.2726391
2015-05-24,116.052166184,54.635873752
2015-05-25,116.50661956,56.499341296
2015-05-26,122.158012192,55.549299768
2015-05-27,124.47150204,55.290410908
2015-05-28,125.283669104,55.484169684
2015-05-29,126.402587528,55.996305044
2015-05-30,127.970048688,55.744867268
2015-05-31,128.659538768,54.884111128
2015-06-01,128.524841056,54.801593504
2015-06-02,129.068427272,55.185335688
2015-06-03,129.192916992,55.133038972
2015-06-04,129.853674224,55.444415272
2015-06-05,129.94319796,54.674091012
2015-06-06,130.784089288,53.968427128
2015-06-07,131.092834832,55.035048336
2015-06-08,130.647168832,55.877520148
2015-06-09,129.729329672,53.95344912
2015-06-10,129.780516592,53.16340762
2015-06-11,129.940312424,53.243522044
2015-06-12,130.257306008,53.367579408
2015-06-13,128.672898696,53.486496084
2015-06-14,128.26179788,54.676562376
2015-06-15,129.1082016,54.508100176
2015-06-16,128.836727944,53.498876268
2015-06-17,128.67315652,54.255340756
2015-06-18,129.075725776,53.006831344
2015-06-19,128.39044636,52.868142836
2015-06-20,128.46400512,52.8675542
2015-06-21,129.57667788,52.608171476
2015-06-22,127.709723632,53.03269736
2015-06-23,127.826899936,53.14544792
2015-06-24,129.466233168,52.14672182
2015-06-25,129.610715776,51.636496884
2015-06-26,130.145947784,53.463247108
2015-06-27,131.682035264,53.0683756
2015-06-28,132.187144208,52.197890336
2015-06-29,130.40975496,54.0890021
2015-06-30,134.105455696,53.577174896
2015-07-01,133.201243688,52.500958492
2015-07-02,133.608826792,52.763155084
2015-07-03,133.89901284,52.820140912
2015-07-04,134.332681576,52.402051072
2015-07-05,133.328795744,52.502158692
2015-07-06,133.032797032,55.204467076
2015-07-07,133.371718408,55.012000508
2015-07-08,132.663695256,52.993927172
2015-07-09,130.98819316,53.209048504
2015-07-10,130.744877144,53.277853424
2015-07-11,131.221374608,52.999599504
2015-07-12,132.458742792,53.855576892
2015-07-13,133.041512464,54.70060756
2015-07-14,133.376749248,55.324826556
2015-07-15,132.592398728,54.228277664
2015-07-16,133.215082704,54.82429686
2015-07-17,133.0505228,55.769386872
2015-07-18,134.384418408,56.57617646
2015-07-19,133.709843304,56.348113828
2015-07-20,133.409872872,58.184266216
2015-07-21,132.810728896,56.687179692
2015-07-22,131.815666936,57.574404088
2015-07-23,131.861419408,57.212326256
2015-07-24,132.752294832,57.846770272
2015-07-25,132.798128472,57.881906852
2015-07-26,132.79226872,57.472629992
2015-07-27,132.94851468,58.436310916
2015-07-28,131.831897976,57.279259528
2015-07-29,131.178259184,58.251339844
2015-07-30,131.714428144,56.98518024
2015-07-31,134.114365608,57.11445298
2015-08-01,131.643073392,57.3268377
2015-08-02,132.01280816,57.044000444
2015-08-03,135.61704168,54.131325812
2015-08-04,129.954702432,53.862285328
2015-08-05,129.856176024,55.317544272
2015-08-06,134.524545136,57.488775192
2015-08-07,131.594005064,56.792163472
2015-08-08,131.424937888,57.744373836
2015-08-09,132.5484516,57.703080636
2015-08-10,131.254637176,57.914007864
2015-08-11,130.536499336,57.654527716
2015-08-12,130.638452384,59.369903696
2015-08-13,131.657961344,59.163662828
2015-08-14,132.41661852,60.018394528
2015-08-15,133.430444152,61.008887548
2015-08-16,133.803147224,59.923230428
2015-08-17,132.007827408,60.131253336
2015-08-18,131.270758984,60.773610872
2015-08-19,130.680015072,60.987456224
2015-08-20,131.546264944,61.40696684
2015-08-21,131.987062328,60.343424012
2015-08-22,131.927970832,59.964291576
2015-08-23,132.277523744,60.14946312
2015-08-24,131.481151784,59.87993994
2015-08-25,131.207960768,60.790739036
2015-08-26,133.526889152,60.30837508
2015-08-27,132.524516128,61.15493038
2015-08-28,134.193608816,63.31872214
2015-08-29,136.286668768,62.805323452
2015-08-30,136.519647288,62.763505536
2015-08-31,136.827126384,64.23027488
2015-09-01,138.133534352,63.280204992
2015-09-02,138.786846376,63.047017208
2015-09-03,139.638247976,63.289693392
2015-09-04,141.691769384,63.906343536
2015-09-05,142.371643744,63.673129412
2015-09-06,142.930835216,62.780749788
2015-09-07,142.648552768,62.908725668
2015-09-08,142.245247528,63.762024264
2015-09-09,141.310410504,63.10523958
2015-09-10,140.34509724,63.571678664
2015-09-11,139.42671528,64.323495248
2015-09-12,141.132864304,64.34773388
2015-09-13,141.273512624,64.71561564
2015-09-14,141.719676064,66.152460564
2015-09-15,144.368865952,65.507872556
2015-09-16,145.048324952,65.096592468
2015-09-17,143.539534472,62.969208968
2015-09-18,142.248735224,62.014968668
2015-09-19,143.158864368,64.428657964
2015-09-20,144.581939904,64.365384692
2015-09-21,143.318790672,64.534285408
2015-09-22,142.758212984,64.278816596
2015-09-23,143.68121744,63.858411412
2015-09-24,143.78169272,63.721697868
2015-09-25,143.657352128,63.923556348
2015-09-26,145.47999324,64.305575336
2015-09-27,144.812100048,64.172601444
2015-09-28,142.281639872,65.09664826
2015-09-29,142.28979572,64.475670856
2015-09-30,142.580806384,64.00577198
2015-10-01,143.254327416,63.905491448
2015-10-02,144.2044168,65.148613836
2015-10-03,145.321775816,66.046968044
2015-10-04,145.98281368,65.360610252
2015-10-05,144.963305896,65.449796128
2015-10-06,143.096394224,64.567814536
2015-10-07,141.6899094,65.29797534
2015-10-08,143.038433096,65.2267115
2015-10-09,143.752526888,65.703155044
2015-10-10,144.325149488,65.947540664
2015-10-11,144.879756696,66.069294168
2015-10-12,142.799936136,65.280689744
2015-10-13,141.704817224,64.5095936
2015-10-14,141.467466576,63.361948504
2015-10-15,141.415038496,63.79987386
2015-10-16,141.792684248,65.34272196
2015-10-17,143.103480504,65.7921309
2015-10-18,143.226307208,64.36060202
2015-10-19,142.443643104,65.33832104
2015-10-20,142.93894608,66.041436364
2015-10-21,143.36131304,66.094562928
2015-10-22,144.147132056,64.95591632
2015-10-23,144.420450912,66.14946074
2015-10-24,146.248897424,66.873788172
2015-10-25,147.0024384,66.614119228
2015-10-26,146.801653152,68.061954604
2015-10-27,146.702181912,68.161511624
2015-10-28,146.896536312,68.284334124
2015-10-29,146.025868376,68.19450592
2015-10-30,146.376104536,68.38400068
2015-10-31,148.88059084,68.86330274
2015-11-01,150.743688904,68.991977088
2015-11-02,150.384261504,68.884583976
2015-11-03,149.080850072,67.662327224
2015-11-04,147.117137984,67.877196664
2015-11-05,147.08036368,68.60544558
2015-11-06,147.918115856,69.573976036
2015-11-07,148.518894344,70.375696828
2015-11-08,149.103383888,69.592433888
2015-11-09,148.400635248,70.19520644
2015-11-10,146.960306272,69.293374936
2015-11-11,147.513507296,69.752874804
2015-11-12,149.923978904,70.582228328
2015-11-13,150.923998328,70.38635648
2015-11-14,150.56878524,69.595636892
2015-11-15,150.527636984,70.011756768
2015-11-16,150.509524392,70.10399518
2015-11-17,150.232195488,68.987661752
2015-11-18,150.675296176,70.782081452